Tracking 23762 objects as of 22-Oct-2021
HD Live streaming from Space Station
objects crossing your sky now

FREGAT R/B

Track FREGAT R/B now!


NORAD ID: 43688
Int'l Code: 2018-086B
Perigee: 19,290.7 km
Apogee: 19,697.9 km
Inclination: 64.4 °
Period: 690.0 minutes
Semi major axis: 25865 km
RCS: Unknown
Launch date: November 3, 2018
Source: Commonwealth of Independent States (former USSR) (CIS)
Launch site: PLESETSK MISSILE AND SPACE COMPLEX (PKMTR)

Note: This is a ROCKET BODY
aabbcc
Your satellite tracking list
Your tracking list is empty




NASA's NSSDC Master Catalog

Two Line Element Set (TLE):
1 43688U 18086B   21294.79998701 -.00000006  00000-0  00000-0 0  9997
2 43688  64.3633 251.8811 0078698 131.0525 229.6062  2.08702027 22354
Source of the keplerian elements: AFSPC